Weather observations for the past three days for
Homestead Air Reserve Base
Imperial (Metric)
Date Time (edt) Wind (mph) Vis. (mi.) Weather Sky Cond. Temperature (ºF) Relative Humidity Wind Chill (°F) Heat Index (°F) Pressure Precipitation (in)
Air Dwpt 6 hour altimeter (in) sea level (mb) 1 hr 3 hr 6 hr
Max. Min.
16 01:55 E 3 10.00 Fair CLR 81.1 77.9 85.5 77.9 90% 89 30.02 1016.9 0.13
16 00:55 Calm 10.00 Fair CLR 80.1 76.8 90% 86 30.04 1017.6
15 23:55 E 5 3.00 Heavy Rain SCT009 78.3 72 81% 81 30.05 1017.9 0.13
15 22:55 Calm 10.00 Fair CLR 83.7 77.5 82% 94 30.05 1017.9
15 21:55 E 3 10.00 Fair CLR 83.8 77 80% 94 30.04 1017.6
15 20:55 Calm 10.00 A Few Clouds FEW022 84.2 77.4 80% 95 30.04 1017.6
15 19:55 E 3 10.00 Fair CLR 85.6 76.3 90.1 85.6 74% 96 30.02 1016.9
15 18:55 E 6 10.00 Fair CLR 86.7 77 73% 98 30 1016.2
15 17:55 E 12 10.00 Fair CLR 87.3 76.6 71% 99 29.99 1015.9
15 16:55 E 9 10.00 Fair CLR 87.8 74.5 65% 97 30 1016.2
15 15:55 E 9 10.00 Fair CLR 87.4 75 67% 97 30.02 1016.9
15 14:55 E 7 10.00 Fair CLR 89.6 74.8 62% 100 30.05 1017.9
15 13:55 E 9 10.00 A Few Clouds FEW120 FEW150 FEW180 88.7 72.5 89.8 79.5 59% 96 30.06 1018.3 0.04
15 12:55 E 8 10.00 Fair CLR 88.2 72 59% 95 30.08 1018.9
15 11:55 E 9 10.00 Fair CLR 84.7 74.7 72% 93 30.09 1019.3
15 10:55 E 8 10.00 Fair CLR 83.8 77.7 82% 94 30.1 1019.6 0.04
15 09:55 Calm 10.00 Fair CLR 81.3 75.9 84% 88 30.09 1019.3 0.04
15 08:55 SE 9 9.00 Thunderstorm in Vicinity Light Rain CLR 81.3 75.9 84% 88 30.08 1018.9
15 07:55 Calm 10.00 Fair CLR 84 77.9 84 78.8 82% 95 30.06 1018.3
15 06:55 Calm 10.00 Fair CLR 79.5 75.9 89% 84 30.04 1017.6
15 05:55 Calm 10.00 Fair CLR 80.4 75.7 86% 86 30.02 1016.9
15 04:55 Calm 10.00 Fair CLR 81.7 76.6 85% 89 30.02 1016.9
15 03:55 E 6 10.00 Fair CLR 81.5 77.5 88% 89 30.02 1016.9
15 02:55 Calm 10.00 Fair CLR 81.1 76.8 87% 88 30.05 1017.9
15 01:55 SE 3 10.00 Fair CLR 81.1 75 85.3 81.1 82% 87 30.07 1018.6
15 00:55 SE 6 10.00 A Few Clouds FEW025 83.5 75.4 77% 91 30.07 1018.6
14 23:55 E 6 10.00 Fair CLR 84.6 76.5 77% 94 30.07 1018.6
14 22:55 NE 9 10.00 Fair CLR 84.7 76.3 76% 94 30.1 1019.6
14 21:55 E 6 10.00 Fair CLR 84.9 76.1 75% 94 30.1 1019.6
14 20:55 E 9 10.00 Fair CLR 84.9 75.6 74% 94 30.08 1018.9
14 19:55 E 8 10.00 Fair CLR 85.3 75.6 90.9 85.3 73% 94 30.06 1018.3
14 18:55 NE 10 10.00 Fair CLR 87.3 75.7 69% 98 30.04 1017.6
14 17:55 E 13 10.00 Fair CLR 88.7 75.4 65% 99 30.05 1017.9
14 16:55 NE 13 10.00 Fair CLR 89.4 75.9 65% 101 30.06 1018.3
14 15:55 E 14 10.00 Fair CLR 89.8 75.9 64% 101 30.07 1018.6
14 14:55 E 14 10.00 Partly Cloudy SCT190 90 77 66% 103 30.1 1019.6
14 13:55 NE 14 10.00 A Few Clouds FEW170 FEW200 90 78.3 90.3 81.9 69% 105 30.1 1019.6
14 12:55 E 12 10.00 A Few Clouds FEW110 FEW180 89.1 78.3 71% 104 30.12 1020.3
14 11:55 E 9 10.00 Fair CLR 89.6 78.4 70% 105 30.12 1020.3
14 10:55 E 9 10.00 Fair CLR 87.8 78.8 75% 102 30.12 1020.3
14 09:55 E 9 10.00 Fair CLR 86.5 78.8 78% 100 30.11 1019.9
14 08:55 E 7 10.00 Fair CLR 84.4 78.6 83% 96 30.11 1019.9
14 07:55 N 3 10.00 Fair CLR 81.7 77.4 82.6 76.5 87% 90 30.11 1019.9 0.14
14 06:55 E 5 10.00 A Few Clouds FEW009 77 70 79% 79 30.1 1019.6 0.11
14 05:55 E 7 10.00 Fair CLR 82.2 78.6 89% 92 30.08 1018.9
14 04:55 NE 6 10.00 Fair CLR 80.1 78.1 94% 86 30.09 1019.3 0.03
14 03:55 W 3 10.00 Fair CLR 79.3 77 93% 84 30.09 1019.3
14 02:55 W 6 10.00 Fair CLR 79.2 77.2 94% 84 30.1 1019.6 0.03
14 01:55 NW 3 9.00 Light Rain CLR 78.1 75.6 84.6 77.2 92% 81 30.11 1020.0 0.03 0.03
14 00:55 Calm 10.00 Light Rain FEW016 77.9 74.3 89% 80 30.15 1021.3
13 23:55 E 5 10.00 Fair CLR 84.4 78.6 83% 96 30.16 1021.6
13 22:55 NE 5 10.00 Mostly Cloudy FEW040 BKN200 83.3 77.9 84% 93 30.14 1021.0
13 21:55 NE 3 10.00 Fair CLR 83.3 77.9 84% 93 30.14 1021.0
13 20:55 NE 3 10.00 Fair CLR 83.5 78.8 86% 95 30.15 1021.3
13 19:55 E 3 10.00 A Few Clouds FEW019 84.4 78.6 86.2 79.5 83% 96 30.13 1020.6 0.21
13 18:55 E 3 10.00 Partly Cloudy SCT019 SCT025 85.5 78.8 81% 98 30.13 1020.6
13 17:55 E 8 10.00 Partly Cloudy SCT019 85.5 79.2 82% 99 30.11 1020.0 0.02
13 16:55 SE 3 10.00 Partly Cloudy FEW023 FEW031 SCT038 SCT180 84.9 78.8 82% 97 30.11 1020.0 0.19
13 15:55 Calm 10.00 Overcast FEW018 BKN040 OVC140 82.9 77.9 85% 93 30.13 1020.6
13 14:55 Calm 10.00 Mostly Cloudy FEW020 FEW043 BKN120 BKN220 80.6 75.6 85% 86 30.13 1020.6 0.19
13 13:55 NW 5 10.00 Thunderstorm CLR 82.6 77.5 89.6 80.4 85% 92 30.17 1022.0 0.04 0.32
13 12:55 Calm 10.00 Thunderstorm Light Rain FEW019 BKN035 OVC055 81.3 77 87% 89 30.17 1022.0 0.28
13 11:55 E 12 10.00 Fair CLR 89.4 77 67% 102 30.17 1022.0
13 10:55 NE 10 10.00 A Few Clouds FEW160 88.3 76.3 68% 100 30.16 1021.6
13 09:55 E 7 10.00 Fair CLR 82.6 76.1 81% 90 30.17 1022.0
13 07:55 N 5 10.00 Fair CLR 80.2 75.2 80.2 76.8 85% 85 30.15 1021.3
13 06:55 Calm 10.00 Fair CLR 77.5 73.9 89% 79 30.14 1021.0
13 05:55 N 6 10.00 A Few Clouds FEW026 77 73.4 89% 78 30.13 1020.6
13 04:55 N 5 10.00 Fair CLR 78.4 73.2 84% 81 30.12 1020.3
13 03:55 N 3 7.00 Fair CLR 77.9 73 85% 80 30.1 1019.6
13 02:55 N 3 5.00 Fair with Haze CLR 77.9 72.7 84% 80 30.11 1020.0
Date Time (edt) Wind (mph) Vis. (mi.) Weather Sky Cond. Air Dwpt Max. Min. Relative Humidity Wind Chill (°F) Heat Index (°F) altimeter (in) sea level (mb) 1 hr 3 hr 6 hr
6 hour
Temperature (ºF) Pressure Precipitation (in)